TimeCET,TemperatureF,Dew PointF,Humidity,Sea Level PressureIn,VisibilityMPH,Wind Direction,Wind SpeedMPH,Gust SpeedMPH,PrecipitationIn,Events,Conditions,WindDirDegrees,DateUTC
12:00 AM,51.8,28.4,41,29.65,6.2,ENE,6.9,-,N/A,,Unknown,60,2012-12-04 23:00:00
12:30 AM,51.8,28.4,41,29.65,6.2,Variable,3.5,-,N/A,,Unknown,0,2012-12-04 23:30:00
1:00 AM,53.6,24.8,33,29.65,6.2,Variable,2.3,-,N/A,,Unknown,0,2012-12-05 00:00:00
1:30 AM,53.6,24.8,33,29.65,6.2,Variable,5.8,-,N/A,,Unknown,0,2012-12-05 00:30:00
2:00 AM,53.6,24.8,33,29.65,6.2,Variable,10.4,23.0,N/A,,Unknown,0,2012-12-05 01:00:00
2:30 AM,51.8,26.6,38,29.65,6.2,Variable,5.8,-,N/A,,Unknown,0,2012-12-05 01:30:00
3:00 AM,53.6,26.6,35,29.65,6.2,Variable,4.6,-,N/A,,Unknown,0,2012-12-05 02:00:00
3:30 AM,53.6,24.8,33,29.65,6.2,Variable,12.7,26.5,N/A,,Unknown,0,2012-12-05 02:30:00
4:00 AM,53.6,26.6,35,29.62,6.2,WNW,13.8,27.6,N/A,,Unknown,290,2012-12-05 03:00:00
4:30 AM,53.6,26.6,35,29.59,6.2,West,18.4,34.5,N/A,,Unknown,280,2012-12-05 03:30:00
5:00 AM,53.6,30.2,41,29.59,6.2,West,12.7,27.6,N/A,,Unknown,280,2012-12-05 04:00:00
5:30 AM,53.6,28.4,38,29.59,6.2,West,15.0,32.2,N/A,,Unknown,270,2012-12-05 04:30:00
6:00 AM,51.8,32.0,47,29.62,6.2,WNW,11.5,24.2,N/A,,Unknown,290,2012-12-05 05:00:00
6:30 AM,53.6,30.2,41,29.62,6.2,WNW,10.4,26.5,N/A,,Unknown,290,2012-12-05 05:30:00
7:00 AM,53.6,30.2,41,29.62,6.2,Variable,8.1,-,N/A,,Unknown,0,2012-12-05 06:00:00
7:30 AM,50.0,35.6,58,29.62,6.2,Variable,5.8,-,N/A,Rain,Light Rain,0,2012-12-05 06:30:00
8:00 AM,50.0,37.4,62,29.62,6.2,SE,5.8,-,N/A,Rain,Light Rain,140,2012-12-05 07:00:00
8:30 AM,51.8,37.4,58,29.65,6.2,West,6.9,-,N/A,Rain,Light Rain,270,2012-12-05 07:30:00
9:00 AM,50.0,41.0,71,29.62,6.2,Variable,1.2,-,N/A,,Mostly Cloudy,0,2012-12-05 08:00:00
9:30 AM,51.8,37.4,58,29.62,6.2,North,8.1,-,N/A,,Mostly Cloudy,350,2012-12-05 08:30:00
10:00 AM,51.8,37.4,58,29.65,6.2,Variable,1.2,-,N/A,,Mostly Cloudy,0,2012-12-05 09:00:00
10:30 AM,51.8,39.2,62,29.65,6.2,Variable,3.5,-,N/A,,Mostly Cloudy,0,2012-12-05 09:30:00
11:00 AM,51.8,37.4,58,29.62,6.2,Variable,3.5,-,N/A,,Mostly Cloudy,0,2012-12-05 10:00:00
11:30 AM,51.8,35.6,54,29.62,6.2,Variable,3.5,-,N/A,,Mostly Cloudy,0,2012-12-05 10:30:00
12:00 PM,51.8,37.4,58,29.62,6.2,Variable,3.5,-,N/A,,Mostly Cloudy,0,2012-12-05 11:00:00
12:30 PM,53.6,32.0,44,29.62,6.2,Variable,12.7,28.8,N/A,,Partly Cloudy,0,2012-12-05 11:30:00
1:00 PM,55.4,30.2,38,29.62,6.2,Variable,5.8,-,N/A,,Mostly Cloudy,0,2012-12-05 12:00:00
1:30 PM,57.2,30.2,36,29.62,6.2,West,10.4,-,N/A,,Partly Cloudy,270,2012-12-05 12:30:00
2:00 PM,57.2,26.6,31,29.59,6.2,Variable,2.3,-,N/A,,Partly Cloudy,0,2012-12-05 13:00:00
4:00 PM,51.8,32.0,47,29.62,6.2,Variable,3.5,-,N/A,,Partly Cloudy,0,2012-12-05 15:00:00
4:30 PM,50.0,30.2,47,29.62,6.2,Variable,4.6,18.4,N/A,,Mostly Cloudy,0,2012-12-05 15:30:00
5:00 PM,53.6,28.4,38,29.62,6.2,Variable,9.2,-,N/A,,Scattered Clouds,0,2012-12-05 16:00:00
5:30 PM,51.8,30.2,44,29.62,6.2,West,8.1,-,N/A,,Partly Cloudy,280,2012-12-05 16:30:00
6:00 PM,51.8,30.2,44,29.62,6.2,Variable,3.5,-,N/A,,Unknown,0,2012-12-05 17:00:00
6:30 PM,51.8,28.4,41,29.62,6.2,West,10.4,29.9,N/A,,Unknown,260,2012-12-05 17:30:00
7:00 PM,53.6,28.4,38,29.62,6.2,West,13.8,28.8,N/A,,Unknown,270,2012-12-05 18:00:00
7:30 PM,51.8,32.0,47,29.65,6.2,North,11.5,40.3,N/A,,Unknown,360,2012-12-05 18:30:00
8:00 PM,51.8,26.6,38,29.65,6.2,Variable,9.2,25.3,N/A,,Unknown,0,2012-12-05 19:00:00
8:30 PM,51.8,26.6,38,29.65,6.2,Variable,10.4,23.0,N/A,,Unknown,0,2012-12-05 19:30:00
9:00 PM,51.8,26.6,38,29.68,6.2,Variable,4.6,-,N/A,,Unknown,0,2012-12-05 20:00:00
9:30 PM,50.0,26.6,40,29.68,6.2,North,4.6,-,N/A,,Unknown,350,2012-12-05 20:30:00
10:00 PM,50.0,26.6,40,29.68,6.2,NNW,4.6,-,N/A,,Unknown,330,2012-12-05 21:00:00
10:30 PM,50.0,26.6,40,29.71,6.2,NNW,9.2,-,N/A,,Unknown,340,2012-12-05 21:30:00
11:00 PM,50.0,28.4,43,29.71,6.2,Variable,5.8,-,N/A,,Partly Cloudy,0,2012-12-05 22:00:00
11:30 PM,51.8,28.4,41,29.71,6.2,SW,12.7,27.6,N/A,,Partly Cloudy,230,2012-12-05 22:30:00